THORAD AGENA D DEB, 4987

Orbit data source: Space-Track

THORAD AGENA D DEB, 4987 is space debris in SSO originally from a launch on Wed, 08 Apr 1970 UTC launched from the Air Force Western Test Range (AFWTR). Debris objects in space refer to the collection of defunct objects orbiting the Earth. Examples of debris include non-operational satellites, rocket bodies, and fragments generated from explosions, collisions, or faulty payload assembly.

Loading next visibility...
Identifier
4987, 1970-025HH
Orbit
SSO
Country
Flag of USUS
Related business
Manufacturer
Unknown
Mission
Spacecraft
Bus & Motor
Unknown
Mass
Unknown
Launch date (UTC)
1970-04-08 (56 years ago)
Launch vehicle
Unknown
Launch site
Air Force Western Test Range (AFWTR)
Object type
Payload
Rocket body
Debris
Shape & HBR
Unknown shape, 0.1 m
Radar Cross Section
Small (<0.1 m²)

Expand to show TLE details & history
Last TLE update: 18 hours ago

TLE from 18 hours ago
0 THORAD AGENA D DEB
1 04987U 70025HH  25300.74509831  .00000110  00000-0  24298-3 0  9999
2 04987  99.6083 232.1056 0039064 341.2449  48.1673 13.49074154731731
Epoch: 2025-10-27T17:52Z
TLE epoch observation values (Epoch: 2025-10-27T17:52:56.493Z)
Latitude
29.33644°
Longitude
-77.90354°
Altitude
1,059.847 km
Speed
7.334 km/s
True Right ascension
15h 06m 41s
True Declination
29° 11' 45"
Sunlit
Object was in daylight at epoch
Visualization orbit readout
Latitude
Unknown
Longitude
Unknown
Altitude
Unknown
Speed
Unknown
Apparent Right ascension
Unknown
Apparent Declination
Unknown
Sunlit
N/A
Visualization observer readout
Local Sidereal Time
07:50:11
Azimuth
Unknown
Elevation
Unknown
Doppler factor
Unknown
Orbital elements
Apogee altitude
1,102.072 km
Perigee altitude
1,043.858 km
Semi-major axis
7,451.102 km
Eccentricity
0.00391
Inclination
99.6083°
RAAN
232.1056°
Arg. of periapsis
341.2449°
True anomaly
48.50192°
Mean anomaly
48.1673°
Eccentric anomaly
48.3345°
Mean motion
3.37452 °/min
Orbital period
106.68 mins
BSTAR
0.00024298
Loading maneuver chart data...
Computing Atmospheric mass density...

Documentation

Showing up to 5 results
|